Date String (YYYY-MM-DD hh:mm:ss) UTC,Instrument flags,Ambient pressure (hPa),Sample flow (lpm),Bypass flow (lpm),Sample temperature (°C),Ambient temperature (°C),ASC tube jacket temperature (°C),LED temperature (°C),Box temperature (°C),Sample RH (%),Span deviation,Mass concentration (μg/m³),Mass concentration (μg/m³),Mass concentration (μg/m³)
DateTimeUTC,F1_M11,P_M11,Q1_M11,Q2_M11,T1_M11,T2_M11,T3_M11,T4_M11,T5_M11,U1_M11,ZSPAN_M11,X0_M11,X2_M11,X1_M11
2022-11-15 10:00:00,,0830.2,5.02,0.00,22.3,21.6,00.0,31.1,24.2,14.5,0000.0,0003.38,0001.79,0001.48
2022-11-15 10:01:00,,0830.2,4.99,0.00,22.4,22.3,00.0,31.1,24.4,14.4,0000.0,0003.44,0001.82,0001.49
2022-11-15 10:02:00,,0830.2,4.99,0.00,22.4,22.1,00.0,31.2,24.4,14.4,0000.0,0003.47,0001.83,0001.49
2022-11-15 10:03:00,,0830.3,5.00,0.00,22.4,21.8,00.0,31.2,24.3,14.4,0000.0,0003.69,0001.84,0001.49
2022-11-15 10:04:00,,0830.2,5.00,0.00,22.4,21.6,00.0,31.2,24.3,14.4,0000.0,0004.07,0001.86,0001.49
2022-11-15 10:05:00,,0830.3,5.01,0.00,22.4,21.3,00.0,31.3,24.3,14.4,0000.0,0003.32,0001.90,0001.52
2022-11-15 10:06:00,,0830.2,5.00,0.00,22.4,21.1,00.0,31.3,24.2,14.4,0000.0,0003.38,0001.93,0001.55
2022-11-15 10:07:00,,0830.3,5.00,0.00,22.4,21.0,00.0,31.3,24.2,14.4,0000.0,0003.37,0001.92,0001.56
2022-11-15 10:08:00,,0830.2,5.00,0.00,22.3,20.8,00.0,31.3,24.2,14.4,0000.0,0003.41,0001.94,0001.56
2022-11-15 10:09:00,,0830.3,4.99,0.00,22.3,20.7,00.0,31.3,24.1,14.4,0000.0,0003.33,0001.92,0001.56
2022-11-15 10:10:00,,0830.2,4.99,0.00,22.3,20.6,00.0,31.3,24.1,14.5,0000.0,0003.27,0001.89,0001.57
2022-11-15 10:11:00,,0830.3,4.99,0.00,22.3,20.5,00.0,31.2,24.1,14.5,0000.0,0003.22,0001.85,0001.56
2022-11-15 10:12:00,,0830.3,5.01,0.00,22.2,20.5,00.0,31.2,24.0,14.5,0000.0,0003.14,0001.81,0001.55
2022-11-15 10:13:00,,0830.3,5.01,0.00,22.2,20.4,00.0,31.2,24.0,14.5,0000.0,0003.29,0001.80,0001.54
2022-11-15 10:14:00,,0830.3,5.00,0.00,22.2,20.3,00.0,31.2,23.9,14.6,0000.0,0003.14,0001.76,0001.54
2022-11-15 10:15:00,,0830.3,4.99,0.00,22.1,20.3,00.0,31.2,23.9,14.6,0000.0,0002.70,0001.75,0001.54
2022-11-15 10:16:00,,0830.3,4.99,0.00,22.1,20.2,00.0,31.1,23.8,14.6,0000.0,0002.70,0001.74,0001.52
2022-11-15 10:17:00,,0830.3,5.01,0.00,22.1,20.2,00.0,31.1,23.8,14.7,0000.0,0002.63,0001.70,0001.49
2022-11-15 10:18:00,,0830.4,5.02,0.00,22.0,20.2,00.0,31.1,23.8,14.7,0000.0,0002.61,0001.69,0001.47
2022-11-15 10:19:00,,0830.4,4.99,0.00,22.0,20.1,00.0,31.1,23.8,14.7,0000.0,0002.56,0001.68,0001.46
2022-11-15 10:20:00,,0830.4,4.99,0.00,22.0,20.1,00.0,31.1,23.8,14.7,0000.0,0002.65,0001.69,0001.47
2022-11-15 10:21:00,,0830.4,4.99,0.00,22.0,20.1,00.0,31.0,23.8,14.7,0000.0,0002.68,0001.69,0001.46
2022-11-15 10:22:00,,0830.4,5.00,0.00,22.0,20.1,00.0,31.0,23.7,14.8,0000.0,0002.61,0001.66,0001.45
2022-11-15 10:23:00,,0830.4,5.01,0.00,21.9,20.2,00.0,31.0,23.7,14.8,0000.0,0002.58,0001.66,0001.44
2022-11-15 10:24:00,,0830.4,5.01,0.00,22.0,20.8,00.0,30.9,23.8,14.8,0000.0,0002.37,0001.64,0001.44
2022-11-15 10:25:00,,0830.4,4.99,0.00,22.1,21.8,00.0,30.9,24.0,14.7,0000.0,0002.31,0001.65,0001.44
2022-11-15 10:26:00,,0830.5,4.99,0.00,22.1,22.0,00.0,30.9,24.1,14.7,0000.0,0002.34,0001.66,0001.43
2022-11-15 10:27:00,,0830.5,5.00,0.00,22.2,21.7,00.0,31.0,24.1,14.6,0000.0,0002.27,0001.63,0001.42
2022-11-15 10:28:00,,0830.5,4.99,0.00,22.1,21.3,00.0,31.0,24.0,14.6,0000.0,0002.33,0001.64,0001.41
2022-11-15 10:29:00,,0830.5,5.00,0.00,22.1,21.1,00.0,31.0,24.0,14.6,0000.0,0002.34,0001.63,0001.41
2022-11-15 10:30:00,,0830.5,5.00,0.00,22.1,20.9,00.0,31.0,24.0,14.6,0000.0,0002.44,0001.63,0001.42
2022-11-15 10:31:00,,0830.4,5.01,0.00,22.1,20.7,00.0,31.0,24.0,14.6,0000.0,0002.42,0001.64,0001.42
2022-11-15 10:32:00,,0830.4,5.01,0.00,22.1,20.6,00.0,31.0,23.9,14.6,0000.0,0002.38,0001.64,0001.43
2022-11-15 10:33:00,,0830.4,5.01,0.00,22.1,20.5,00.0,31.0,23.9,14.6,0000.0,0002.53,0001.71,0001.45
2022-11-15 10:34:00,,0830.5,4.98,0.00,22.1,20.5,00.0,31.0,23.9,14.6,0000.0,0002.56,0001.73,0001.47
2022-11-15 10:35:00,,0830.4,5.02,0.00,22.0,20.4,00.0,31.0,23.9,14.6,0000.0,0002.56,0001.75,0001.49
2022-11-15 10:36:00,,0830.4,5.00,0.00,22.0,20.4,00.0,31.0,23.9,14.6,0000.0,0002.60,0001.77,0001.50
2022-11-15 10:37:00,,0830.4,4.99,0.00,22.0,20.4,00.0,31.0,23.8,14.6,0000.0,0003.07,0001.75,0001.52
2022-11-15 10:38:00,,0830.4,5.00,0.00,22.0,20.4,00.0,31.0,23.8,14.6,0000.0,0003.55,0001.77,0001.54
2022-11-15 10:39:00,,0830.4,5.00,0.00,22.0,20.3,00.0,31.0,23.8,14.6,0000.0,0003.51,0001.78,0001.57
2022-11-15 10:40:00,,0830.4,5.00,0.00,22.0,20.2,00.0,31.0,23.7,14.6,0000.0,0004.31,0001.82,0001.59
2022-11-15 10:41:00,,0830.3,5.00,0.00,21.9,20.2,00.0,30.9,23.7,14.7,0000.0,0005.15,0001.83,0001.61
2022-11-15 10:42:00,,0830.4,5.00,0.00,21.9,20.1,00.0,30.9,23.7,14.7,0000.0,0005.32,0001.88,0001.63
2022-11-15 10:43:00,,0830.4,5.01,0.00,21.9,20.1,00.0,30.9,23.7,14.7,0000.0,0005.60,0001.94,0001.64
2022-11-15 10:44:00,,0830.4,5.00,0.00,21.9,20.1,00.0,30.9,23.7,14.7,0000.0,0005.51,0001.91,0001.64
2022-11-15 10:45:00,,0830.4,5.01,0.00,21.8,20.1,00.0,30.9,23.6,14.7,0000.0,0005.50,0001.92,0001.65
2022-11-15 10:46:00,,0830.4,5.00,0.00,21.9,20.9,00.0,30.8,23.8,14.6,0000.0,0005.53,0001.95,0001.66
2022-11-15 10:47:00,,0830.4,4.99,0.00,22.0,21.8,00.0,30.8,23.9,14.6,0000.0,0005.57,0001.99,0001.68
2022-11-15 10:48:00,,0830.4,5.00,0.00,22.0,21.9,00.0,30.8,24.0,14.5,0000.0,0005.25,0002.03,0001.71
2022-11-15 10:49:00,,0830.4,5.01,0.00,22.1,21.5,00.0,30.9,24.0,14.5,0000.0,0004.72,0002.07,0001.73
2022-11-15 10:50:00,,0830.4,5.00,0.00,22.0,21.1,00.0,30.9,23.9,14.5,0000.0,0004.75,0002.10,0001.75
2022-11-15 10:51:00,,0830.5,5.00,0.00,22.0,20.9,00.0,30.9,23.8,14.5,0000.0,0004.43,0002.14,0001.76
2022-11-15 10:52:00,,0830.5,5.00,0.00,22.0,20.7,00.0,30.9,23.8,14.5,0000.0,0003.48,0002.16,0001.78
2022-11-15 10:53:00,,0830.5,5.00,0.00,22.0,20.5,00.0,30.9,23.8,14.5,0000.0,0004.53,0002.17,0001.79
2022-11-15 10:54:00,,0830.5,5.00,0.00,22.0,20.4,00.0,30.9,23.8,14.5,0000.0,0005.02,0002.17,0001.81
2022-11-15 10:55:00,,0830.5,4.99,0.00,21.9,20.2,00.0,30.9,23.7,14.5,0000.0,0005.36,0002.17,0001.83
2022-11-15 10:56:00,,0830.6,5.01,0.00,21.9,20.2,00.0,30.9,23.7,14.5,0000.0,0005.39,0002.17,0001.84
2022-11-15 10:57:00,,0830.5,5.01,0.00,21.9,20.1,00.0,30.9,23.6,14.6,0000.0,0005.40,0002.17,0001.84
2022-11-15 10:58:00,,0830.5,5.00,0.00,21.9,20.1,00.0,30.9,23.6,14.6,0000.0,0005.39,0002.17,0001.85
2022-11-15 10:59:00,,0830.5,4.99,0.00,21.8,20.0,00.0,30.8,23.6,14.6,0000.0,0005.37,0002.17,0001.85
